Date,TemperatureHighF,TemperatureAvgF,TemperatureLowF,DewpointHighF,DewpointAvgF,DewpointLowF,HumidityHigh,HumidityAvg,HumidityLow,PressureMaxIn,PressureMinIn,WindSpeedMaxMPH,WindSpeedAvgMPH,GustSpeedMaxMPH,PrecipitationSumIn
2013-1-1,24,19,11,17,14,8,87,81,73,0.00,40.00,9,4,12,0.00
2013-1-2,25,21,18,16,13,10,81,73,62,0.00,40.00,13,9,25,0.00
2013-1-3,29,21,17,12,10,8,71,60,45,0.00,40.00,18,12,28,0.00
2013-1-4,31,24,20,12,10,8,62,55,43,0.00,40.00,14,11,24,0.00
2013-1-5,28,23,15,11,9,7,70,55,45,0.00,40.00,17,10,31,0.00
2013-1-6,35,28,23,17,13,11,67,54,46,0.00,40.00,11,6,18,0.00
2013-1-7,28,25,23,24,20,14,94,80,59,0.00,40.00,21,14,38,0.01
2013-1-8,36,30,25,34,27,21,96,89,80,0.00,40.00,16,9,26,0.01
2013-1-9,42,37,32,33,32,28,93,80,71,0.00,40.00,22,12,32,0.01
2013-1-10,32,30,27,29,22,21,93,75,66,0.00,40.00,13,5,20,0.00
2013-1-11,27,23,16,23,15,10,83,69,57,0.00,40.00,14,7,18,0.00
2013-1-12,19,13,6,13,8,1,86,79,67,0.00,40.00,11,4,16,0.00
2013-1-13,24,15,9,13,9,5,86,77,60,0.00,40.00,8,4,11,0.00
2013-1-14,24,17,11,15,11,7,82,76,67,0.00,40.00,13,6,22,0.00
2013-1-15,27,16,9,16,10,4,83,75,62,0.00,40.00,6,3,11,0.00
2013-1-16,25,19,16,15,11,9,82,71,63,0.00,40.00,17,11,27,0.00
2013-1-17,28,20,16,15,11,9,74,68,58,0.00,40.00,18,14,33,0.00
2013-1-18,28,21,17,15,12,10,71,67,58,0.00,40.00,18,15,30,0.00
2013-1-19,28,21,16,15,12,9,71,65,57,0.00,40.00,18,13,29,0.00
2013-1-20,30,21,10,16,12,5,78,67,54,0.00,40.00,14,8,20,0.00
2013-1-21,29,21,16,15,11,9,72,65,53,0.00,40.00,19,13,29,0.00
2013-1-22,33,25,18,17,13,10,69,60,50,0.00,40.00,18,13,33,0.00
2013-1-23,36,32,27,24,18,14,64,55,48,0.00,40.00,24,12,37,0.00
2013-1-24,41,36,31,33,28,22,87,74,59,0.00,40.00,11,5,17,0.00
2013-1-25,39,38,37,37,36,34,96,91,84,0.00,40.00,11,7,17,0.01
2013-1-26,42,36,31,38,34,29,99,90,65,0.00,40.00,9,4,16,0.01
2013-1-27,35,32,30,31,29,28,97,88,76,0.00,40.00,8,5,13,0.01
2013-1-28,32,31,29,32,30,28,100,97,87,0.00,40.00,12,8,18,0.00
2013-1-29,36,33,32,36,33,32,100,100,100,0.00,40.00,12,6,16,0.01
2013-1-30,43,39,36,39,36,33,100,86,74,0.00,40.00,9,5,15,0.01
2013-1-31,46,41,37,41,38,36,99,92,82,0.00,40.00,8,4,11,0.00
2013-2-1,50,40,31,37,34,30,98,79,50,0.00,40.00,6,3,13,0.00
2013-2-2,44,33,26,35,30,26,100,89,67,0.00,40.00,7,4,12,0.00
2013-2-3,43,36,32,34,31,29,93,84,70,0.00,40.00,14,9,22,0.00
2013-2-4,40,36,33,33,32,30,93,84,73,0.00,40.00,12,8,20,0.00
2013-2-5,45,38,34,36,32,30,95,81,67,0.00,40.00,12,7,23,0.00
2013-2-6,47,38,33,34,30,26,93,74,50,0.00,40.00,16,6,28,0.00
2013-2-7,39,35,27,35,30,25,100,83,56,0.00,40.00,16,6,28,0.01
2013-2-8,39,31,24,30,28,24,100,87,70,0.00,40.00,13,7,19,0.01
2013-2-9,42,35,31,30,26,25,82,71,49,0.00,40.00,11,7,16,0.00
2013-2-10,42,34,27,29,27,25,94,76,55,0.00,40.00,11,7,18,0.00
2013-2-11,44,32,22,31,26,21,96,80,53,0.00,40.00,5,2,9,0.00
2013-2-12,45,40,36,37,34,31,97,80,64,0.00,40.00,10,5,15,0.00
2013-2-13,49,42,38,35,32,30,82,67,49,0.00,40.00,10,6,22,0.00
2013-2-14,47,39,32,35,31,28,88,74,52,0.00,40.00,6,3,9,0.00
2013-2-15,54,39,29,36,33,29,100,80,51,0.00,40.00,7,4,12,0.00
2013-2-16,53,42,35,37,32,25,94,71,49,0.00,40.00,20,8,31,0.00
2013-2-17,43,35,26,27,25,23,91,66,46,0.00,40.00,12,5,25,0.00
2013-2-18,43,33,24,28,23,21,90,70,43,0.00,40.00,17,7,29,0.00
2013-2-19,37,34,27,35,30,24,100,86,59,0.00,40.00,9,5,14,0.00
2013-2-20,40,32,27,29,27,23,100,83,50,0.00,40.00,6,3,12,0.00
2013-2-21,37,31,25,33,30,24,99,92,75,0.00,40.00,9,5,14,0.00
2013-2-22,38,34,32,35,32,26,100,94,75,0.00,40.00,15,9,28,0.02
2013-2-23,37,33,30,32,27,22,99,80,57,0.00,40.00,22,8,33,0.01
2013-2-24,40,33,26,29,26,23,93,76,55,0.00,40.00,10,5,16,0.00
2013-2-25,40,35,31,32,26,21,100,71,54,0.00,40.00,15,9,27,0.00
2013-2-26,42,34,31,26,23,21,80,64,43,0.00,40.00,10,4,16,0.00
2013-2-27,45,36,30,27,24,21,79,61,45,0.00,40.00,14,8,23,0.00
2013-2-28,39,37,34,37,31,26,100,81,60,0.00,40.00,13,9,24,0.01
2013-3-1,49,44,37,43,40,37,100,85,71,0.00,40.00,15,8,22,0.01
2013-3-2,52,45,38,43,40,37,95,82,61,0.00,40.00,14,7,25,0.00
2013-3-3,44,39,33,41,27,18,90,62,41,0.00,40.00,10,7,20,0.00
2013-3-4,46,34,21,30,21,15,100,62,32,0.00,40.00,15,7,26,0.00
2013-3-5,46,40,33,28,20,15,61,45,37,0.00,40.00,18,11,34,0.00
2013-3-6,48,40,35,36,32,29,96,75,51,0.00,40.00,15,8,27,0.00
2013-3-7,49,36,28,32,28,23,99,74,36,0.00,40.00,10,4,14,0.00
2013-3-8,50,36,25,31,27,23,93,72,36,0.00,40.00,17,7,23,0.00
2013-3-9,51,37,27,31,25,21,90,66,30,0.00,40.00,9,6,16,0.00
2013-3-10,54,34,21,40,25,19,93,71,25,0.00,40.00,9,5,17,0.00
2013-3-11,51,44,41,41,38,33,100,80,51,0.00,40.00,9,4,17,0.00
2013-3-12,62,48,39,41,39,35,100,75,42,0.00,40.00,15,6,28,0.00
2013-3-13,64,50,39,41,39,35,97,69,38,0.00,40.00,8,4,14,0.00
2013-3-14,66,49,36,40,37,35,93,67,34,0.00,40.00,12,6,22,0.00
2013-3-15,59,51,44,40,36,32,81,57,36,0.00,40.00,10,5,17,0.00
2013-3-16,54,44,37,37,35,31,94,72,41,0.00,40.00,17,7,28,0.00
2013-3-17,40,36,33,33,22,19,93,56,45,0.00,40.00,21,11,38,0.00
2013-3-18,49,39,33,28,23,18,80,55,30,0.00,40.00,13,7,27,0.00
2013-3-19,53,38,21,23,18,11,88,52,20,0.00,40.00,17,7,30,0.00
2013-3-20,56,46,38,42,35,18,86,68,26,0.00,40.00,21,13,36,0.01
2013-3-21,39,35,32,31,23,18,75,60,53,0.00,40.00,15,8,29,0.00
2013-3-22,39,31,26,29,25,20,97,77,46,0.00,40.00,12,6,21,0.00
2013-3-23,41,30,20,25,21,16,96,72,35,0.00,40.00,7,3,10,0.00
2013-3-24,49,33,20,26,20,15,88,64,26,0.00,40.00,6,4,11,0.00
2013-3-25,53,41,27,26,23,17,83,51,27,0.00,40.00,14,7,29,0.00
2013-3-26,59,46,34,37,32,25,77,59,42,0.00,40.00,7,3,11,0.00
2013-3-27,57,45,31,45,38,31,100,78,48,0.00,40.00,10,4,18,0.00
2013-3-28,61,47,37,48,42,37,100,86,49,0.00,40.00,12,5,17,0.00
2013-3-29,60,49,42,47,44,41,100,84,50,0.00,40.00,8,4,11,0.00
2013-3-30,67,48,33,42,35,22,100,69,18,0.00,40.00,7,4,9,0.00
2013-3-31,70,50,31,42,35,30,95,64,26,0.00,40.00,13,5,18,0.00
2013-4-1,69,52,35,42,38,33,93,63,32,0.00,40.00,14,6,22,0.00
2013-4-2,65,52,37,41,39,36,97,65,36,0.00,40.00,9,4,15,0.00
2013-4-3,68,53,40,41,39,37,97,64,32,0.00,40.00,8,4,13,0.00
2013-4-4,65,50,40,46,40,37,92,70,42,0.00,40.00,14,6,26,0.00
2013-4-5,57,50,43,47,44,39,100,83,52,0.00,40.00,10,5,16,0.01
2013-4-6,53,46,42,46,43,38,100,88,63,0.00,40.00,13,5,22,0.01
2013-4-7,54,44,38,43,37,30,100,77,47,0.00,40.00,23,8,38,0.01
2013-4-8,47,40,33,35,32,30,100,75,56,0.00,40.00,15,7,21,0.01
2013-4-9,56,41,30,35,32,29,95,72,44,0.00,40.00,10,6,17,0.00
2013-4-10,57,44,34,48,37,30,100,78,50,0.00,40.00,16,6,34,0.00
2013-4-11,49,43,32,32,30,28,88,62,45,0.00,40.00,16,5,34,0.00
2013-4-12,60,41,27,43,32,26,98,74,30,0.00,40.00,12,6,25,0.00
2013-4-13,46,41,36,42,29,23,97,64,41,0.00,40.00,20,9,38,0.00
2013-4-14,47,38,33,32,28,24,86,70,42,0.00,40.00,13,6,22,0.00
2013-4-15,44,35,28,37,31,27,97,83,59,0.00,40.00,18,9,27,0.00
2013-4-16,45,36,29,28,25,22,88,65,41,0.00,40.00,19,11,30,0.00
2013-4-17,51,37,25,22,18,11,81,50,21,0.00,40.00,12,7,20,0.00
2013-4-18,54,42,28,39,29,19,73,59,45,0.00,40.00,6,3,10,0.00
2013-4-19,49,47,45,46,44,41,100,89,75,0.00,40.00,11,6,19,0.01
2013-4-20,56,48,43,42,38,35,92,68,47,0.00,40.00,13,6,26,0.01
2013-4-21,56,46,39,39,36,32,88,68,51,0.00,40.00,14,6,26,0.00
2013-4-22,52,42,34,37,30,22,100,66,36,0.00,40.00,16,8,26,0.00
2013-4-23,55,39,25,29,22,11,87,57,16,0.00,40.00,9,5,14,0.00
2013-4-24,65,46,30,34,26,23,75,50,20,0.00,40.00,12,6,18,0.00
2013-4-25,68,50,32,39,33,29,91,58,28,0.00,40.00,12,5,18,0.00
2013-4-26,75,54,35,42,38,34,97,60,25,0.00,40.00,10,4,18,0.00
2013-4-27,74,59,39,40,35,28,88,45,19,0.00,40.00,13,6,24,0.00
2013-4-28,63,53,50,40,37,32,63,53,31,0.00,40.00,11,6,23,0.00
2013-4-29,54,51,46,44,35,22,82,55,29,0.00,40.00,18,13,43,0.00
2013-4-30,48,40,30,26,24,21,86,53,35,0.00,40.00,14,6,21,0.00
2013-5-1,59,41,23,32,23,18,92,57,21,0.00,40.00,8,4,24,0.00
2013-5-2,71,50,29,31,26,19,87,47,14,0.00,40.00,12,5,22,0.00
2013-5-3,67,53,39,40,36,32,85,54,27,0.00,40.00,18,7,26,0.00
2013-5-4,70,56,42,39,36,30,81,49,25,0.00,40.00,12,8,23,0.00
2013-5-5,74,58,43,43,36,32,74,46,22,0.00,40.00,11,6,16,0.00
2013-5-6,80,65,39,47,42,35,95,46,20,0.00,40.00,16,8,23,0.00
2013-5-7,81,59,45,50,42,36,85,60,20,0.00,40.00,12,6,18,0.00
2013-5-8,82,64,45,50,46,42,92,56,29,0.00,40.00,15,5,22,0.00
2013-5-9,83,65,45,52,46,41,97,55,25,0.00,40.00,12,5,19,0.00
2013-5-10,85,62,45,53,37,-100,87,53,14,0.00,40.00,8,4,11,0.00
2013-5-11,87,69,51,55,48,44,82,52,24,0.00,40.00,6,3,10,0.00
2013-5-12,83,66,52,56,52,49,89,63,36,0.00,40.00,13,4,20,0.00
2013-5-13,75,60,47,55,47,40,96,64,44,0.00,40.00,17,6,28,0.00
2013-5-14,67,53,40,41,38,34,93,60,33,0.00,40.00,12,5,19,0.00
2013-5-15,69,50,34,44,38,33,98,67,30,0.00,40.00,13,5,22,0.00
2013-5-16,65,55,48,46,31,-100,90,65,43,0.00,40.00,6,3,11,0.00
2013-5-17,62,53,46,48,45,42,92,73,55,0.00,40.00,10,4,15,0.00
2013-5-18,61,51,43,47,42,37,100,74,42,0.00,40.00,11,4,18,0.00
2013-5-19,58,50,44,44,42,40,99,74,54,0.00,40.00,7,3,13,0.00
2013-5-20,74,55,37,49,42,37,100,69,31,0.00,40.00,9,4,13,0.00
2013-5-21,69,50,43,44,42,36,99,76,30,0.00,40.00,15,7,27,0.01
2013-5-22,50,42,36,39,35,31,98,80,48,0.00,40.00,11,4,17,0.01
2013-5-23,59,43,29,39,34,29,100,75,36,0.00,40.00,8,4,15,0.00
2013-5-24,53,45,38,44,40,36,100,85,59,0.00,40.00,12,5,16,0.01
2013-5-25,63,49,32,46,40,32,100,74,43,0.00,40.00,6,4,10,0.01
2013-5-26,59,51,41,49,44,40,95,78,60,0.00,40.00,7,4,12,0.00
2013-5-27,63,50,36,53,46,36,100,87,48,0.00,40.00,12,5,20,0.01
2013-5-28,59,52,47,49,46,42,100,82,56,0.00,40.00,7,4,11,0.01
2013-5-29,55,48,41,49,44,41,100,89,70,0.00,40.00,9,4,18,0.02
2013-5-30,59,51,42,44,40,36,96,67,45,0.00,40.00,8,4,15,0.01
2013-5-31,67,52,34,44,38,34,99,64,33,0.00,40.00,6,3,12,0.00
2013-6-1,72,56,39,49,44,38,99,66,39,0.00,40.00,10,4,16,0.00
2013-6-2,64,55,43,47,44,42,95,69,46,0.00,40.00,9,5,18,0.00
2013-6-3,71,56,39,46,43,38,100,66,37,0.00,40.00,10,4,16,0.00
2013-6-4,75,60,41,50,44,40,95,60,30,0.00,40.00,8,5,14,0.00
2013-6-5,81,64,45,51,47,43,91,60,31,0.00,40.00,5,3,10,0.00
2013-6-6,85,66,50,57,51,46,96,63,28,0.00,40.00,7,3,12,0.00
2013-6-7,79,66,51,54,48,39,98,58,27,0.00,40.00,15,6,25,0.00
2013-6-8,82,66,48,45,41,34,82,43,20,0.00,40.00,9,5,15,0.00
2013-6-9,79,66,51,50,45,39,67,47,32,0.00,40.00,10,6,17,0.00
2013-6-10,77,62,38,44,37,35,90,43,24,0.00,40.00,10,5,17,0.00
2013-6-11,68,56,45,45,39,34,78,55,39,0.00,40.00,10,5,18,0.00
2013-6-12,67,56,45,41,38,36,74,52,33,0.00,40.00,9,4,15,0.00
2013-6-13,63,53,40,40,37,34,85,56,39,0.00,40.00,12,5,21,0.00
2013-6-14,71,56,49,46,41,38,80,59,29,0.00,40.00,8,4,16,0.00
2013-6-15,80,61,40,45,40,33,91,53,18,0.00,40.00,6,4,12,0.00
2013-6-16,85,68,55,54,44,39,67,43,20,0.00,40.00,8,4,15,0.00
2013-6-17,81,68,50,55,47,44,86,48,30,0.00,40.00,10,4,23,0.00
2013-6-18,68,58,50,52,49,46,93,72,54,0.00,40.00,12,6,21,0.00
2013-6-19,52,48,44,50,46,43,100,94,80,0.00,40.00,15,4,23,0.01
2013-6-20,60,51,47,48,44,40,94,78,51,0.00,40.00,11,6,19,0.03
2013-6-22,71,62,49,54,48,43,92,62,39,0.00,40.00,5,3,14,0.00
2013-6-23,72,60,46,55,50,46,99,73,47,0.00,40.00,7,3,13,0.00
2013-6-24,64,58,52,59,56,52,100,92,71,0.00,40.00,6,2,12,0.01
2013-6-25,65,57,49,58,54,49,100,92,68,0.00,40.00,13,4,22,0.03
2013-6-26,65,57,54,59,56,54,100,95,79,0.00,40.00,3,2,7,0.03
2013-7-1,95,84,66,70,65,58,78,55,42,0.00,40.00,7,4,11,0.00
2013-7-2,96,80,66,68,65,54,99,66,25,0.00,40.00,6,3,9,0.00
2013-7-3,89,78,62,63,56,50,79,49,31,0.00,40.00,8,4,14,0.00
2013-7-4,82,69,51,52,45,36,88,47,21,0.00,40.00,8,5,14,0.00
2013-7-5,79,66,49,52,46,43,93,53,28,0.00,40.00,9,4,17,0.00
2013-7-6,83,60,43,52,45,40,91,62,21,0.00,40.00,9,4,14,0.00
2013-7-7,89,70,50,54,49,43,92,51,24,0.00,40.00,11,4,17,0.00
2013-7-8,86,66,56,52,44,-100,77,51,20,0.00,40.00,8,4,15,0.00
2013-7-9,92,70,47,53,47,40,85,48,17,0.00,40.00,7,4,10,0.00
2013-7-10,91,73,53,52,42,-100,78,38,21,0.00,40.00,11,6,17,0.00
2013-7-11,84,69,53,47,41,37,73,40,20,0.00,40.00,10,5,15,0.00
2013-7-12,81,64,46,43,37,25,75,42,18,0.00,40.00,12,5,20,0.00
2013-7-13,82,65,44,44,39,30,87,43,15,0.00,40.00,11,5,17,0.00
2013-7-14,89,68,48,47,43,39,84,45,18,0.00,40.00,10,4,15,0.00
2013-7-15,88,67,48,47,42,39,71,43,20,0.00,40.00,14,6,21,0.00
2013-7-16,93,73,59,58,47,40,80,42,21,0.00,40.00,14,8,37,0.00
2013-7-17,89,73,57,59,52,43,97,56,20,0.00,40.00,8,5,13,0.01
2013-7-18,93,74,52,49,44,38,77,41,15,0.00,40.00,12,5,17,0.01
2013-7-19,95,74,52,49,44,39,78,39,15,0.00,40.00,14,6,20,0.00
2013-7-20,93,69,47,47,40,-100,85,43,10,0.00,40.00,9,4,15,0.00
2013-7-21,94,72,46,46,40,31,85,39,10,0.00,40.00,9,4,14,0.00
2013-7-22,92,71,47,47,40,33,78,40,12,0.00,40.00,8,4,15,0.00
2013-7-23,84,62,49,48,44,41,74,55,28,0.00,40.00,3,2,7,0.00
2013-7-26,96,83,66,46,36,27,38,20,9,0.00,40.00,11,5,17,0.00
2013-7-27,86,71,55,49,39,27,62,36,11,0.00,40.00,9,4,17,0.00
2013-7-28,84,65,45,41,37,29,75,41,13,0.00,40.00,9,4,15,0.00
2013-7-29,86,65,43,43,37,29,80,42,13,0.00,40.00,9,4,14,0.00
2013-7-30,88,71,56,46,42,38,67,37,17,0.00,40.00,10,4,16,0.00
2013-7-31,88,70,52,46,43,39,68,39,22,0.00,40.00,9,4,15,0.00
2013-8-1,80,64,53,58,50,42,95,65,29,0.00,40.00,20,6,32,0.00
2013-8-2,58,57,56,56,54,53,96,90,82,0.00,40.00,5,3,9,0.01
2013-8-4,89,79,63,52,45,41,55,32,18,0.00,40.00,11,5,16,0.00
2013-8-5,89,73,57,51,46,43,75,43,20,0.00,40.00,11,5,19,0.00
2013-8-6,93,71,49,49,44,37,83,45,14,0.00,40.00,9,4,14,0.00
2013-8-7,91,78,58,49,42,34,69,30,16,0.00,40.00,6,4,11,0.00
2013-8-8,91,75,56,50,45,40,72,38,16,0.00,40.00,15,8,25,0.00
2013-8-9,94,75,57,54,48,44,75,41,18,0.00,40.00,11,5,22,0.00
2013-8-10,88,71,55,60,52,48,94,54,29,0.00,40.00,12,6,19,0.00
2013-8-11,83,67,52,59,54,50,100,67,37,0.00,40.00,11,4,19,0.00
2013-8-12,84,69,52,58,53,49,97,60,30,0.00,40.00,10,4,19,0.00
2013-9-1,88,72,50,49,47,44,83,45,23,0.00,40.00,5,3,9,0.00
2013-9-2,73,68,62,67,59,47,97,76,39,0.00,40.00,8,4,15,0.00
2013-9-3,82,69,61,64,60,57,97,74,43,0.00,40.00,11,6,22,0.00
2013-9-4,87,69,56,63,59,54,99,74,35,0.00,40.00,10,4,20,0.00
2013-9-5,83,67,58,63,58,50,99,78,42,0.00,40.00,12,6,21,0.03
2013-9-6,70,61,53,56,51,46,100,70,43,0.00,40.00,8,4,15,0.00
2013-9-7,79,63,49,54,49,-100,99,65,35,0.00,40.00,11,4,17,0.00
2013-9-8,76,63,48,52,49,45,100,65,35,0.00,40.00,11,5,21,0.00
2013-9-9,84,65,47,54,49,46,97,62,28,0.00,40.00,7,4,12,0.00
2013-9-10,88,69,48,52,48,45,94,51,22,0.00,40.00,9,5,15,0.00
2013-9-11,92,70,50,52,48,42,81,49,17,0.00,40.00,10,4,18,0.00
2013-9-12,86,64,51,54,49,44,89,61,33,0.00,40.00,10,4,19,0.00
2013-9-14,-200,0,200,-100,-100,-100,0,0,100,0.00,40.00,3,3,4,0.00
2013-9-16,78,67,52,51,48,45,76,52,35,0.00,40.00,11,6,17,0.00
2013-9-17,65,53,45,52,47,43,95,81,53,0.00,40.00,19,5,33,0.01
2013-9-18,52,49,42,44,43,40,94,78,66,0.00,40.00,8,3,15,0.01
2013-9-19,72,53,35,42,36,30,100,61,22,0.00,40.00,12,5,24,0.00
2013-9-20,80,61,43,41,33,28,75,41,14,0.00,40.00,17,8,31,0.00
2013-9-21,65,55,49,51,44,-100,88,69,49,0.00,40.00,6,3,11,0.00
2013-9-22,67,55,49,50,46,39,98,74,37,0.00,40.00,9,5,16,0.01
2013-9-23,66,55,44,50,44,38,98,67,39,0.00,40.00,10,5,19,0.01
2013-9-24,57,49,42,49,46,42,100,89,67,0.00,40.00,8,4,13,0.01
2013-9-25,51,46,41,44,42,38,100,85,66,0.00,40.00,10,5,17,0.01
2013-9-26,54,48,39,42,41,38,95,78,61,0.00,40.00,14,8,23,0.00
2013-9-27,54,46,37,46,40,36,100,83,52,0.00,40.00,11,6,18,0.01
2013-9-28,64,53,46,49,44,-100,100,75,50,0.00,40.00,13,10,24,0.01
2013-9-29,63,49,46,46,44,41,97,83,45,0.00,40.00,15,9,26,0.03
2013-9-30,50,48,44,46,42,35,94,80,57,0.00,40.00,16,7,30,0.03
2013-10-1,45,42,39,39,38,37,93,84,74,0.00,40.00,6,4,13,0.00
2013-10-2,52,40,29,40,35,29,100,83,48,0.00,40.00,10,4,16,0.00
2013-10-3,51,44,35,39,36,33,92,74,56,0.00,40.00,18,9,28,0.00
2013-10-4,60,43,30,39,33,27,99,73,28,0.00,40.00,8,5,15,0.00
2013-10-5,66,46,29,37,33,29,98,66,32,0.00,40.00,5,3,10,0.00
2013-10-6,70,54,31,36,31,29,95,47,21,0.00,40.00,19,7,32,0.00
2013-10-7,60,48,35,40,35,31,85,62,43,0.00,40.00,15,4,24,0.00
2013-10-8,48,44,41,42,38,35,99,80,62,0.00,40.00,9,4,16,0.00
2013-10-9,54,44,35,41,39,35,100,82,53,0.00,40.00,14,7,22,0.00
2013-10-10,57,44,35,41,37,34,99,79,44,0.00,40.00,11,4,17,0.00
2013-10-11,57,46,38,40,37,33,94,73,38,0.00,40.00,6,3,10,0.00
2013-10-12,53,43,34,42,36,-100,100,82,60,0.00,40.00,10,4,16,0.00
2013-10-13,56,45,37,40,37,33,94,73,47,0.00,40.00,13,8,21,0.00
2013-10-14,56,42,32,37,33,30,93,73,41,0.00,40.00,10,5,16,0.00
2013-10-15,59,41,28,37,33,26,93,74,37,0.00,40.00,10,4,15,0.00
2013-10-16,63,44,33,37,34,31,96,72,32,0.00,40.00,7,3,12,0.00
2013-10-17,61,43,30,39,33,30,97,72,37,0.00,40.00,13,4,20,0.00
2013-10-18,63,40,26,38,32,26,98,76,39,0.00,40.00,4,2,9,0.00
2013-10-19,66,41,26,40,31,-100,99,75,37,0.00,40.00,5,2,9,0.00
2013-10-20,67,46,31,39,35,30,96,68,36,0.00,40.00,11,4,17,0.00
2013-10-21,65,47,30,43,38,30,100,76,42,0.00,40.00,8,2,12,0.00
2013-10-22,68,46,33,45,39,33,100,82,42,0.00,40.00,3,2,6,0.00
2013-10-23,69,45,32,44,39,32,100,82,39,0.00,40.00,3,2,6,0.00
2013-10-24,68,44,32,43,38,32,100,82,36,0.00,40.00,4,2,7,0.00
2013-10-25,65,45,30,44,38,30,100,80,42,0.00,40.00,4,2,6,0.00
2013-10-26,66,44,30,42,35,-100,100,78,36,0.00,40.00,4,2,7,0.00
2013-10-27,54,41,26,42,36,26,100,84,57,0.00,40.00,12,5,18,0.00
2013-11-2,-200,0,200,-100,-100,-100,0,0,100,0.00,40.00,10,10,20,0.00
2013-11-3,41,37,32,32,29,24,99,74,56,0.00,40.00,9,6,19,0.01
2013-11-4,40,33,24,33,27,20,100,81,52,0.00,40.00,6,4,11,0.00
2013-11-5,35,31,22,33,28,20,100,91,77,0.00,40.00,12,8,24,0.00
2013-11-6,43,38,34,40,37,33,100,94,87,0.00,40.00,11,6,18,0.01
2013-11-7,49,44,41,45,41,31,100,88,61,0.00,40.00,18,8,29,0.02
2013-11-8,47,44,42,35,32,30,66,62,57,0.00,40.00,12,8,23,0.01
2013-11-10,49,44,37,39,37,35,91,78,68,0.00,40.00,4,3,6,0.00
2013-11-11,55,41,31,41,37,31,100,86,55,0.00,40.00,5,3,9,0.00
2013-11-12,57,49,35,47,39,33,100,71,43,0.00,40.00,10,5,20,0.00
2013-11-13,54,44,32,44,39,32,100,84,50,0.00,40.00,5,2,8,0.00
2013-11-14,45,36,28,39,33,28,100,90,69,0.00,40.00,6,2,12,0.00
2013-11-15,44,38,34,36,32,26,99,79,51,0.00,40.00,11,6,20,0.00
2013-11-16,41,38,33,35,30,25,100,75,56,0.00,40.00,25,9,43,0.01
2013-11-17,46,40,34,37,32,29,88,75,58,0.00,40.00,10,6,23,0.01
2013-11-18,47,42,38,38,31,29,88,65,57,0.00,40.00,15,9,24,0.00
2013-11-19,48,45,41,45,40,38,96,84,76,0.00,40.00,12,9,23,0.01
2013-11-20,43,34,24,41,22,11,92,64,42,0.00,40.00,15,10,25,0.01
2013-11-21,38,26,18,16,12,8,71,55,38,0.00,40.00,16,8,23,0.00
2013-11-22,35,24,14,23,16,11,90,73,54,0.00,40.00,5,2,8,0.00
2013-11-23,41,25,16,22,18,13,91,74,38,0.00,40.00,3,2,5,0.00
2013-11-24,43,27,16,26,20,14,93,79,46,0.00,40.00,4,2,5,0.00
2013-11-25,46,31,21,28,25,20,97,80,47,0.00,40.00,4,2,7,0.00
2013-11-26,50,35,24,29,25,22,92,67,37,0.00,40.00,16,6,29,0.00
2013-11-27,51,35,28,29,27,24,89,74,41,0.00,40.00,8,4,13,0.00
2013-11-28,45,32,26,31,28,23,96,84,55,0.00,40.00,4,2,7,0.00
2013-11-29,45,32,18,34,28,17,98,84,58,0.00,40.00,7,2,11,0.00
2013-11-30,47,38,30,39,33,-100,100,87,66,0.00,40.00,7,3,13,0.00
2013-12-1,54,46,39,47,42,37,100,88,60,0.00,40.00,13,8,36,0.03
2013-12-2,49,38,30,46,34,21,100,85,64,0.00,40.00,16,8,36,0.01
2013-12-3,29,24,21,26,20,14,96,82,64,0.00,40.00,12,6,19,0.00
2013-12-4,21,14,9,12,6,0,79,68,51,0.00,40.00,11,7,16,0.00
2013-12-5,15,6,-1,6,1,-6,85,77,64,0.00,40.00,5,2,7,0.00
2013-12-6,17,11,4,13,6,0,84,79,67,0.00,40.00,13,6,20,0.00
2013-12-7,16,9,-5,12,0,-100,84,67,55,0.00,40.00,16,10,23,0.00
2013-12-8,9,-3,-9,-4,-9,-15,77,71,54,0.00,40.00,4,1,7,0.00
2013-12-9,20,10,-4,9,1,-10,79,66,56,0.00,40.00,14,7,23,0.00
2013-12-10,23,20,16,13,9,4,67,61,54,0.00,40.00,17,9,25,0.00
2013-12-11,29,23,16,17,13,8,71,65,59,0.00,40.00,21,10,34,0.00
2013-12-12,33,27,23,19,16,13,71,62,57,0.00,40.00,21,14,39,0.00
2013-12-13,33,29,26,33,28,19,100,94,70,0.00,40.00,9,4,17,0.00
2013-12-14,38,34,30,32,27,-100,97,81,73,0.00,40.00,12,7,21,0.00
2013-12-15,40,35,32,31,28,27,81,76,68,0.00,40.00,16,10,27,0.00
2013-12-23,44,39,36,39,34,28,99,81,65,0.00,40.00,20,10,42,0.00
2013-12-24,40,33,25,31,28,24,95,80,61,0.00,40.00,5,3,9,0.00
2013-12-25,38,32,24,28,25,22,95,75,64,0.00,40.00,13,8,21,0.00
2013-12-26,39,33,29,28,24,22,77,70,61,0.00,40.00,18,10,29,0.00
2013-12-27,39,33,29,25,23,21,74,65,54,0.00,40.00,16,8,25,0.00
2013-12-28,41,31,25,32,25,-100,97,84,63,0.00,40.00,7,3,12,0.00
2013-12-29,36,26,19,27,23,18,98,87,67,0.00,40.00,8,4,14,0.00
2013-12-30,36,31,25,33,27,22,98,84,67,0.00,40.00,17,8,30,0.01
2013-12-31,36,34,32,35,32,30,100,93,81,0.00,40.00,12,6,20,0.01
2014-1-1,36,33,32,36,33,32,100,100,100,0.00,40.00,4,2,6,0.00
2014-1-2,38,34,30,33,31,29,100,88,77,0.00,40.00,15,9,27,0.00